Theta_e
320 320 319 319 319 319 320 320 320 321 321 321 321 321 322 322 322 317 306 313 317 341 345 322 320 315 318 327 336 341 323 318 319 321 326 334 330 337 340 335 336 334 331 334 337
319 318 318 318 319 318 319 319 320 320 320 320 320 321 322 322 316 310 322 336 340 341 317 312 315 316 313 321 328 332 320 322 329 328 328 332 329 330 332 332 334 329 334 336 338
318 318 318 318 318 318 319 319 318 318 318 319 320 320 322 321 312 310 343 336 345 342 316 315 321 317 315 323 324 332 318 327 329 331 333 329 329 332 331 328 329 326 329 333 335
317 317 317 317 317 317 318 318 318 318 318 319 319 320 322 315 305 320 351 341 347 322 314 313 322 315 317 316 327 324 329 329 328 334 331 327 330 329 334 333 340 331 332 331 330
317 317 317 317 317 317 317 317 317 317 318 318 319 320 316 310 308 328 345 342 322 315 311 317 319 318 314 316 325 323 327 330 332 335 334 333 331 333 330 339 339 333 332 330 329
317 316 317 316 316 316 317 317 317 317 317 318 319 319 312 302 324 330 322 320 314 308 312 321 323 321 315 316 316 328 324 326 331 333 333 330 329 328 328 335 334 331 330 330 329
316 316 316 316 316 316 316 316 316 317 317 318 319 317 310 308 323 326 318 311 310 309 316 326 328 317 316 313 315 329 324 329 329 331 331 334 328 324 331 333 333 331 330 330 330
317 316 316 316 316 316 316 315 316 316 318 319 320 315 304 318 317 322 319 315 313 314 320 328 325 315 310 314 313 310 314 314 323 331 332 330 319 330 334 333 331 330 330 330 331
317 317 316 316 316 315 314 315 316 318 323 324 313 310 307 322 314 316 320 314 313 312 316 326 319 308 310 304 301 306 301 310 319 330 328 327 318 322 335 335 328 329 329 328 330
317 316 315 316 314 314 314 314 316 318 320 318 315 307 312 311 312 316 322 318 313 313 314 315 307 301 301 298 294 301 303 309 314 326 326 320 320 329 335 330 328 328 327 326 329
316 315 315 315 315 314 312 313 309 311 313 304 307 313 312 315 315 316 321 316 314 311 304 308 299 295 300 303 305 308 307 308 318 326 323 321 320 327 332 330 328 327 325 326 327
316 315 316 316 314 313 310 310 315 309 303 310 309 310 315 312 310 315 317 309 307 303 306 302 297 305 306 307 306 306 305 313 320 323 321 318 321 328 332 330 329 327 326 326 329
315 315 315 314 313 308 310 314 320 313 300 306 311 308 310 313 309 311 312 309 305 303 303 299 304 309 306 304 303 303 300 311 314 319 322 318 315 317 326 332 330 329 330 330 330
315 315 314 312 308 313 311 317 319 313 294 302 305 308 310 313 308 317 315 309 305 302 303 302 308 307 304 303 303 296 307 310 316 311 309 322 304 311 321 327 329 328 330 330 332
315 315 313 311 308 308 314 316 312 307 287 305 304 312 308 307 310 310 316 311 304 305 303 300 303 303 303 304 306 302 308 316 314 310 309 311 307 308 318 320 326 331 331 332 332
315 314 312 311 311 312 316 317 310 293 289 300 305 303 303 307 307 311 310 311 311 307 304 304 309 305 304 308 308 309 306 313 313 307 301 306 307 308 314 320 321 328 333 335 335
313 312 310 315 310 318 318 309 294 290 305 299 299 303 302 301 304 306 305 302 298 293 296 302 304 306 308 301 305 306 300 293 296 298 297 304 306 309 320 322 322 323 325 331 336
311 309 311 315 317 318 316 305 293 300 300 306 305 302 300 303 302 304 303 299 303 302 298 295 294 303 307 302 299 301 299 294 291 293 297 306 305 309 320 326 326 327 327 332 331
309 315 315 318 318 317 310 295 296 301 304 301 300 298 297 302 302 302 301 300 303 303 293 298 297 308 308 308 305 301 299 303 296 297 294 304 309 317 320 320 327 323 328 331 333
311 314 315 323 322 315 303 296 300 306 306 302 297 300 296 299 299 297 300 304 304 305 304 301 294 304 308 308 307 305 307 297 296 291 289 301 303 305 316 323 328 329 331 334 336
315 310 319 321 320 308 297 298 304 307 305 302 299 299 299 299 300 298 299 303 305 304 305 300 298 300 303 299 299 302 300 301 298 298 292 295 303 318 320 322 323 326 329 331 327
313 307 318 318 306 306 300 302 303 303 304 303 302 301 299 301 300 299 300 301 306 304 300 303 297 293 298 303 305 303 302 300 294 293 302 301 300 321 323 322 322 323 325 328 332
310 311 313 313 300 300 302 302 304 303 303 302 300 301 301 301 297 301 303 305 306 304 301 302 296 292 294 296 299 297 301 298 298 299 300 296 298 323 322 321 323 322 324 325 328
312 303 310 309 306 302 301 300 299 304 304 304 301 303 300 299 301 300 300 304 305 303 316 308 298 295 291 293 298 296 300 301 296 295 299 302 308 316 318 319 321 320 320 321 322
314 301 306 298 301 302 303 302 299 299 304 306 302 303 300 296 298 299 303 301 304 310 305 299 295 295 297 301 300 299 300 301 296 302 300 301 307 312 315 316 317 318 318 317 317
308 307 309 303 306 305 301 299 299 300 301 300 301 303 305 299 299 298 300 300 300 304 299 301 296 296 296 302 300 297 300 301 301 308 306 309 308 318 318 317 316 316 316 315 315
317 318 313 306 304 300 299 301 301 306 303 303 303 303 300 301 304 304 303 302 302 299 300 299 299 296 289 298 297 292 297 299 307 312 311 303 308 316 314 314 313 312 313 312 312
Wind_Speed
12 12 12 12 13 13 13 14 14 14 12 12 12 12 13 13 14 4 8 11 9 11 5 5 10 10 12 13 16 5 3 2 5 11 5 4 6 4 8 5 3 9 18 20 18
12 12 12 13 13 13 13 13 14 14 14 13 12 12 12 12 7 11 15 17 6 18 7 9 11 12 9 12 6 5 6 3 4 7 10 8 5 8 6 9 3 21 18 18 16
13 14 13 12 12 13 14 14 13 14 14 14 13 12 11 10 6 9 7 26 12 12 13 14 12 14 13 14 7 9 6 8 12 9 17 13 9 8 15 13 21 25 23 17 22
14 14 14 14 14 14 14 14 14 13 14 13 13 13 11 3 1 3 4 23 14 9 8 14 15 14 8 11 8 11 15 6 9 12 13 15 14 10 9 8 8 22 18 14 10
16 15 15 15 15 15 15 14 15 14 14 13 12 12 7 4 12 6 11 13 8 5 12 13 13 11 12 10 7 7 12 17 15 15 16 16 12 12 9 11 5 18 17 14 9
17 16 14 15 15 16 16 15 15 16 14 13 10 8 5 5 4 12 11 9 9 9 11 14 10 10 10 14 10 11 14 9 10 19 17 15 12 4 4 9 7 17 16 11 10
16 16 16 15 16 16 17 17 16 15 15 10 6 6 6 17 4 12 10 7 8 10 10 16 19 10 7 11 12 8 5 8 8 20 12 18 13 4 13 12 12 18 16 11 10
15 17 17 17 17 17 17 17 17 14 13 11 5 5 10 11 17 11 10 9 10 10 15 15 12 8 5 9 14 5 6 4 5 15 9 10 9 15 11 13 17 21 17 13 10
15 15 17 16 16 17 17 15 17 12 11 8 5 5 9 4 8 11 10 11 11 9 13 17 9 3 8 6 7 7 6 6 5 16 14 6 8 5 7 23 20 17 15 14 11
15 17 17 14 14 15 14 17 11 9 3 9 9 3 8 11 9 10 10 13 13 12 14 12 4 1 5 3 8 6 8 5 8 12 11 12 8 11 11 19 18 16 12 12 14
16 16 16 14 11 10 10 2 1 3 7 11 10 8 7 12 9 12 13 11 10 7 7 7 5 7 11 12 16 13 8 11 14 10 14 6 7 9 11 16 16 15 10 13 14
15 16 13 11 8 5 5 5 11 7 6 20 19 18 20 6 10 12 8 7 8 8 9 4 8 12 14 16 17 16 14 5 8 14 8 11 12 10 15 15 15 16 14 16 15
16 15 12 10 10 2 7 11 12 11 4 14 11 11 12 14 11 11 10 8 8 8 9 8 12 18 16 14 15 13 9 6 7 16 9 14 7 6 6 10 11 12 6 14 13
17 15 13 12 5 4 9 14 17 7 3 7 10 8 10 10 8 13 9 8 5 10 9 10 18 14 14 12 11 9 10 7 20 17 8 11 6 4 6 11 15 15 14 12 10
18 15 11 5 8 5 9 15 6 3 4 14 11 5 4 3 6 13 13 11 10 10 8 10 12 13 13 15 11 10 8 16 11 8 10 7 6 8 9 3 15 11 15 14 14
16 12 11 3 4 12 16 16 5 2 3 3 7 6 10 10 13 16 11 7 8 9 8 14 11 11 8 10 10 11 7 6 6 5 7 12 20 9 12 16 12 8 7 14 14
15 11 5 7 6 10 13 4 3 2 20 4 6 8 11 8 14 14 12 9 5 3 5 10 13 8 8 3 6 6 1 3 1 3 9 12 5 5 14 16 8 6 9 11 10
19 13 10 8 9 11 11 5 2 1 8 16 27 8 12 11 11 12 9 7 12 12 5 6 5 9 4 4 6 7 6 5 4 5 10 5 5 5 16 20 19 18 13 7 12
26 4 4 6 15 4 5 5 3 5 8 12 19 5 9 13 10 11 9 11 13 11 4 4 9 5 8 7 9 9 7 10 4 5 4 4 6 6 16 12 9 15 7 7 7
4 3 9 13 9 5 8 2 5 6 14 13 9 4 11 11 10 5 9 11 7 7 6 6 5 8 11 8 5 6 1 6 3 2 2 4 5 8 18 18 16 17 16 11 7
3 3 5 17 12 12 3 6 8 12 7 7 11 7 4 12 19 9 2 13 16 11 9 6 0 9 4 3 2 3 5 2 1 1 6 6 0 11 14 18 18 16 13 12 13
4 3 5 5 4 4 5 9 5 4 3 4 5 10 13 12 11 10 9 11 11 7 6 6 3 4 8 4 3 4 5 6 5 6 3 5 3 7 12 16 16 15 14 13 15
4 4 3 4 0 3 6 6 6 11 9 6 4 5 7 6 5 4 5 6 8 7 5 6 6 2 6 1 3 4 7 7 4 2 7 6 4 8 11 14 13 14 13 11 16
3 4 5 5 6 10 7 3 5 3 2 4 4 6 4 3 4 4 5 3 5 5 3 3 3 2 2 3 3 8 7 9 4 2 4 1 12 9 16 17 16 15 17 15 14
4 2 2 4 5 6 7 8 10 7 3 2 4 2 5 2 6 6 9 1 4 0 3 3 3 5 4 1 7 10 6 13 5 8 8 12 8 9 10 17 16 17 16 16 13
3 3 7 0 6 5 5 5 10 10 10 10 7 12 7 8 3 3 6 6 6 7 4 6 4 7 9 7 8 10 17 10 1 16 13 17 10 4 13 15 15 16 15 12 10
6 4 3 7 7 8 5 4 4 3 3 9 10 8 13 10 5 3 5 7 2 3 5 4 3 5 5 7 6 6 9 14 15 15 16 8 10 12 10 15 14 14 14 10 9
Wind_Direction
339 337 335 333 331 331 330 331 330 328 328 327 327 326 323 321 306 218 234 227 187 216 218 252 212 223 256 237 237 69 307 333 153 160 148 160 113 85 101 296 166 148 141 153 152
335 333 332 331 329 328 327 327 327 326 325 324 325 324 327 326 289 248 233 225 239 197 212 240 195 215 231 234 221 90 321 299 233 163 157 155 131 120 81 326 248 134 140 152 135
334 331 329 328 325 324 324 322 319 319 320 321 320 322 325 320 270 246 196 218 176 167 206 229 215 203 224 232 227 101 222 286 316 172 147 143 129 116 142 189 157 145 153 159 143
329 327 325 322 320 317 317 315 313 312 312 314 316 317 316 265 245 11 8 172 163 186 229 239 243 226 239 241 175 122 239 239 263 167 141 150 143 129 106 178 284 141 155 154 155
325 323 320 318 316 313 312 310 308 306 306 306 309 315 302 219 252 150 115 134 144 197 214 227 249 232 226 243 114 135 209 208 220 202 161 152 143 132 135 174 222 153 158 164 158
322 319 317 314 312 311 309 306 302 302 301 298 295 308 251 247 170 144 160 158 179 184 215 225 248 226 246 251 248 186 200 185 178 210 164 146 101 58 222 192 208 165 158 172 151
322 319 315 312 309 308 307 303 299 299 296 290 280 249 260 244 119 165 177 182 197 177 215 227 242 256 262 290 266 188 182 286 182 174 167 127 136 232 171 181 195 169 163 169 167
319 314 311 311 309 307 304 303 299 296 287 270 248 242 255 239 248 203 183 186 207 189 229 252 251 268 287 291 296 220 234 177 159 158 131 103 80 176 154 200 236 157 168 164 179
318 314 314 314 311 309 307 299 294 292 286 198 202 243 258 200 193 237 161 183 196 198 229 251 249 276 314 290 305 259 223 197 309 164 147 130 140 249 184 202 165 164 172 167 148
323 323 319 319 317 313 309 288 284 314 203 193 263 257 246 222 185 225 193 180 188 195 228 238 84 26 292 282 233 227 229 273 164 136 94 85 116 156 242 148 165 169 169 160 150
329 324 322 316 317 323 327 237 193 200 235 206 194 235 295 225 162 206 205 186 180 199 189 218 113 214 234 241 250 260 208 212 64 50 84 66 151 181 149 160 166 173 167 159 156
329 326 320 310 308 321 288 250 263 301 278 223 251 267 252 226 182 193 170 182 181 194 198 130 218 232 229 235 246 256 268 58 107 78 77 101 223 183 165 166 185 176 174 167 162
327 325 322 312 312 235 231 260 277 295 295 287 212 241 253 162 180 179 173 205 198 194 186 210 229 221 240 239 241 247 250 173 157 98 103 124 266 292 281 170 180 173 169 167 152
326 326 326 321 291 284 247 251 251 302 303 260 168 251 257 158 186 184 191 202 181 203 209 216 251 228 233 250 233 246 240 242 154 156 149 161 252 167 228 206 180 170 185 181 164
324 319 323 330 310 297 285 318 310 5 286 146 172 214 246 212 171 179 180 234 231 199 190 238 231 248 224 241 240 247 253 130 152 167 105 209 231 262 120 236 181 193 185 185 186
318 317 324 183 216 242 276 287 319 299 258 221 135 155 200 207 253 162 175 236 265 264 227 235 225 233 245 225 243 263 279 185 170 140 220 198 201 161 172 213 206 180 235 178 193
315 298 284 314 251 298 308 327 306 9 338 355 159 191 213 194 233 180 170 214 230 224 271 241 250 223 249 254 267 278 213 293 176 144 245 203 165 191 168 181 194 166 243 259 223
310 301 221 219 250 280 296 333 60 194 301 289 287 197 209 216 226 158 163 193 240 252 236 212 245 237 180 212 238 254 199 178 174 192 225 28 110 161 170 176 168 191 222 250 279
311 201 237 222 226 255 50 58 310 292 231 294 329 194 213 221 217 154 177 206 223 232 239 251 216 204 183 179 211 283 235 233 282 255 11 113 37 89 166 131 162 213 166 176 203
293 279 266 258 128 54 56 298 250 231 284 320 338 288 26 308 191 162 184 208 255 223 80 10 357 288 217 207 227 173 296 11 317 126 151 116 145 173 129 119 110 86 93 119 88
240 278 260 95 78 58 277 252 267 249 306 16 4 11 339 27 28 11 75 44 15 7 2 35 76 298 52 151 172 54 325 322 40 130 151 153 84 334 106 115 102 89 89 98 119
297 286 242 97 100 166 187 203 303 342 335 70 30 40 26 33 22 34 349 22 351 1 6 6 271 259 247 257 236 256 249 216 136 298 99 102 12 29 74 90 92 89 82 84 95
283 254 211 154 241 184 178 117 40 13 10 9 37 102 18 74 42 102 281 10 345 350 41 343 334 11 309 318 282 249 277 280 271 124 161 127 199 135 121 98 107 111 105 89 89
285 339 352 28 20 33 15 76 116 45 17 55 8 326 44 166 203 191 180 68 2 23 338 52 329 63 251 282 336 338 260 271 246 14 66 57 145 159 115 118 117 105 92 82 74
229 56 230 12 337 87 15 13 51 20 18 341 164 254 89 52 356 354 16 116 207 92 283 129 315 351 324 293 352 327 274 246 265 148 127 195 137 177 146 119 109 102 97 96 89
4 18 351 337 282 96 60 69 44 22 356 27 5 5 102 72 79 15 14 356 46 329 9 354 64 304 311 323 18 337 330 225 295 96 101 104 82 65 111 111 110 100 102 92 98
347 342 10 256 18 65 44 39 53 85 51 31 354 358 46 29 37 282 270 289 230 349 332 56 56 333 256 58 18 351 16 8 87 110 125 122 147 135 131 104 105 101 90 87 77